Location: Nachod
(50.4170°N, 16.1670°E)
Time: 14:10:02
(UTC+02:00)

ISS - Pass Details

Date: 01 April 2019
Orbit: 408 x 410 km, 51.6° (Epoch: 25 April)

Event Time Altitude Azimuth Distance (km) Brightness Sun altitude
Rises 21:46:19 0° 286° (WNW) 2,338 1.3 -21.1°
Reaches altitude 10° 21:48:27 10° 281° (W) 1,474 -0.1 -21.4°
Enters shadow 21:50:55 38° 246° (WSW) 638 -2.7 -21.7°
